Regional Weather Roundup
Issued by NWS

Home | Current Version | Previous Version | Graphics & Text | Print | Product List | Glossary On
Versions: 1 2 3 4 5 6 7 8 9 10 11 12 13 14 15 16 17 18 19 20 21 22 23 24 25 26 27 28 29 30 31 32 33 34 35 36 37 38 39 40 41 42 43 44 45 46 47 48 49 50
144
ASUS43 KLMK 242110
RWRKY
KENTUCKY REGIONAL WEATHER ROUNDUP
NATIONAL WEATHER SERVICE LOUISVILLE KY
400 PM EST FRI FEB 24 2017

NOTE "FAIR" INDICATES FEW OR NO CLOUDS BELOW 12,000 FEET
WITH NO SIGNIFICANT WEATHER AND/OR OBSTRUCTIONS TO VISIBILITY.

KYZ001>023-026-027-061>063-070>075-242200-
WESTERN AND SOUTH CENTRAL KENTUCKY

CITY           SKY/WX    TMP DP  RH WIND       PRES   REMARKS
PADUCAH        CLOUDY    65  54  67 SW18G28   29.62R
HENDERSON      CLOUDY    72  52  49 W17       29.55R
OWENSBORO      PTSUNNY   76  50  40 SW20G29   29.54R
HOPKINSVILLE   SUNNY     80  47  30 S22G29    29.57F
BOWLING GREEN  MOSUNNY   79  53  40 S25G33    29.60S
GLASGOW        PTSUNNY   77  51  40 S15G24    29.61S
$$

KYZ024-025-028>034-038-045-046-053-242200-
NORTH CENTRAL KENTUCKY

CITY           SKY/WX    TMP DP  RH WIND       PRES   REMARKS
LOUISVILLE/SDF PTSUNNY   80  50  34 S20G26    29.55S
LOUISVILLE/LOU CLOUDY    80  51  36 S17G31    29.55S
FORT KNOX      PTSUNNY   76  53  44 S18G30    29.56S
$$

KYZ035>037-039>044-047>052-055>060-089>105-242200-
NORTHEAST KENTUCKY

CITY           SKY/WX    TMP DP  RH WIND       PRES   REMARKS
LEXINGTON      SUNNY     79  48  33 S16G33    29.59F
COVINGTON      PTSUNNY   77  52  41 SW13G29   29.56S
FRANKFORT      MOSUNNY   79  49  34 SW20G29   29.57F
$$

KYZ054-064>069-076>088-106>120-242200-
SOUTHEAST KENTUCKY

CITY           SKY/WX    TMP DP  RH WIND       PRES   REMARKS
JACKSON        SUNNY     78  51  38 VRB7      29.68F
LONDON         SUNNY     75  49  39 S18G24    29.68F
SOMERSET       SUNNY     73  50  43 S13G20    29.66F
MIDDLESBORO    SUNNY     75  53  44 S13       29.72F
MONTICELLO     CLEAR     77  54  44 S9G20     29.66F
$$





USA.gov is the U.S. government's official web portal to all federal, state and local government web resources and services.